MIDAS 3 DEB, 188

Orbit data source: Space-Track

MIDAS 3 DEB, 188 is space debris in LEO originally from a launch on Wed, 12 Jul 1961 UTC launched from the Air Force Western Test Range (AFWTR). Debris objects in space refer to the collection of defunct objects orbiting the Earth. Examples of debris include non-operational satellites, rocket bodies, and fragments generated from explosions, collisions, or faulty payload assembly.

Loading next visibility...
Identifier
188, 1961-018C
Orbit
LEO
Last TLE update
1 day ago
Origin
Manufacturer
Unknown
Mission
Spacecraft
Bus & Motor
Unknown
Mass
~10 kg wet, ~10 kg dry
Launch date (UTC)
1961-07-12 (64 years ago)
Launch vehicle
Unknown
Launch site
Air Force Western Test Range (AFWTR)
Object type
Payload
Rocket body
Debris
Shape & HBR
Unknown
Radar Cross Section
Medium (>0.1 m² and <1 m²)

Expand to show TLE details & history

TLE from 1 day ago
0 MIDAS 3 DEB
1 00188U 61018C   25199.41651614  .00000042  00000-0  14127-1 0  9999
2 00188  91.0943 193.6462 0128238  29.0544 331.7392  8.93831774 88378
Epoch: 2025-07-18T09:59Z
TLE epoch observation values (Epoch: 2025-07-18T09:59:46.994Z)
Latitude
-0.00005°
Longitude
107.23211°
Altitude
3,321.324 km
Speed
6.447 km/s
True Right ascension
12h 54m 35s
True Declination
0° 00' 00"
Sunlit
Object was in daylight at epoch
Visualization orbit readout
Latitude
-38.8007°
Longitude
-73.59435°
Altitude
3,567.385 km
Speed
6.291 km/s
Apparent Right ascension
22h 21m 25s
Apparent Declination
-64° 47' 04"
Sunlit
Object is in daylight
Visualization observer readout
Local Sidereal Time
03:19:05
Azimuth
208.138° SW
Elevation
-29.522°
Doppler factor
1
Orbital elements
Apogee altitude
3,553.012 km
Perigee altitude
3,301.526 km
Semi-major axis
9,805.406 km
Eccentricity
0.01282
Inclination
91.0943°
RAAN
193.6462°
Arg. of periapsis
29.0544°
True anomaly
331.03347°
Mean anomaly
331.7392°
Eccentric anomaly
331.38734°
Mean motion
2.23535 °/min
Orbital period
161.05 mins
BSTAR
0.014127
Loading maneuver chart data...
Loading SW <> Apogee altitude chart data...
Loading historical data...
Loading historical data...
Loading historical data...
Loading historical data...
Loading historical data...
Loading historical data...
Loading historical data...
Other satellites on launch #18 in the year 1961 (1961-07-12 UTC)
|